DLH22K GCTS-LPMA

Flight info

Callsign DLH22K
Flight time 1h 6m
Altitude 35000
Route BIMBO DCT EKNOT
Aircraft A20N/M-SDE2E3FGHIRWXY/LB1

Departure

Time 2026-05-04 14:34
Airport Tenerife Sur Airport (GCTS)

Arrival

Time 2026-05-04 15:40
Airport Cristiano Ronaldo International Airport (LPMA)
Time Latitude Longitude Altitude Speed Heading
2026-05-04 13:58 28.04648 -16.57893 208 ft 0 kts 10°
2026-05-04 14:21 28.04641 -16.57895 199 ft 2 kts 10°
2026-05-04 14:21 28.04629 -16.57897 205 ft 2 kts 10°
2026-05-04 14:22 28.04620 -16.57899 203 ft 2 kts 10°
2026-05-04 14:22 28.04607 -16.57901 211 ft 1 kts 359°
2026-05-04 14:22 28.04593 -16.57899 211 ft 2 kts 345°
2026-05-04 14:22 28.04582 -16.57895 212 ft 2 kts 334°
2026-05-04 14:23 28.04562 -16.57873 199 ft 2 kts 256°
2026-05-04 14:23 28.04562 -16.57870 199 ft 0 kts 244°
2026-05-04 14:26 28.04554 -16.57890 203 ft 6 kts 244°
2026-05-04 14:26 28.04507 -16.57933 198 ft 12 kts 180°
2026-05-04 14:27 28.04436 -16.57900 202 ft 9 kts 162°
2026-05-04 14:27 28.04390 -16.57940 205 ft 11 kts 250°
2026-05-04 14:27 28.04361 -16.58032 202 ft 14 kts 248°
2026-05-04 14:27 28.04320 -16.58150 200 ft 18 kts 250°
2026-05-04 14:28 28.04270 -16.58292 204 ft 21 kts 249°
2026-05-04 14:28 28.04213 -16.58457 199 ft 24 kts 247°
2026-05-04 14:28 28.04156 -16.58642 199 ft 26 kts 249°
2026-05-04 14:28 28.04097 -16.58813 203 ft 10 kts 248°
2026-05-04 14:29 28.04035 -16.58985 196 ft 3 kts 233°
2026-05-04 14:29 28.04026 -16.58995 197 ft 0 kts 223°
2026-05-04 14:32 28.03930 -16.58932 203 ft 12 kts 118°
2026-05-04 14:32 28.03899 -16.58842 200 ft 12 kts 88°
2026-05-04 14:32 28.03921 -16.58749 202 ft 12 kts 68°
2026-05-04 14:32 28.03928 -16.58729 202 ft 0 kts 68°
2026-05-04 14:33 28.03929 -16.58726 202 ft 6 kts 68°
2026-05-04 14:33 28.04030 -16.58424 196 ft 75 kts 68°
2026-05-04 14:33 28.04298 -16.57667 206 ft 129 kts 68°
2026-05-04 14:34 28.04697 -16.56601 417 ft 151 kts 70°
2026-05-04 14:34 28.05113 -16.55520 1049 ft 150 kts 67°
2026-05-04 14:34 28.05518 -16.54432 1706 ft 150 kts 66°
2026-05-04 14:34 28.05926 -16.53289 2140 ft 166 kts 66°
2026-05-04 14:35 28.06379 -16.51993 2604 ft 188 kts 67°
2026-05-04 14:35 28.06883 -16.50514 3056 ft 215 kts 68°
2026-05-04 14:35 28.07450 -16.48843 3553 ft 239 kts 68°
2026-05-04 14:35 28.08060 -16.46989 4070 ft 262 kts 69°
2026-05-04 14:36 28.08738 -16.45022 4836 ft 272 kts 62°
2026-05-04 14:36 28.09941 -16.43356 5627 ft 278 kts 35°
2026-05-04 14:36 28.11672 -16.42448 6399 ft 281 kts
2026-05-04 14:36 28.13623 -16.42132 7223 ft 284 kts
2026-05-04 14:37 28.15608 -16.41976 8072 ft 288 kts
2026-05-04 14:37 28.17628 -16.41828 8889 ft 293 kts
2026-05-04 14:37 28.19681 -16.41647 9727 ft 299 kts
2026-05-04 14:37 28.21776 -16.41433 10446 ft 308 kts
2026-05-04 14:38 28.23999 -16.41191 10712 ft 332 kts
2026-05-04 14:38 28.26371 -16.40923 11038 ft 352 kts
2026-05-04 14:38 28.28802 -16.40638 11713 ft 357 kts
2026-05-04 14:38 28.31305 -16.40342 12359 ft 365 kts
2026-05-04 14:39 28.33851 -16.40040 13112 ft 370 kts
2026-05-04 14:39 28.36426 -16.39738 13882 ft 375 kts
2026-05-04 14:39 28.39035 -16.39434 14587 ft 379 kts
2026-05-04 14:40 28.44315 -16.38820 15964 ft 387 kts
2026-05-04 14:40 28.47006 -16.38509 16640 ft 391 kts
2026-05-04 14:40 28.49738 -16.38194 17298 ft 396 kts
2026-05-04 14:40 28.52491 -16.37875 17959 ft 400 kts
2026-05-04 14:41 28.55284 -16.37552 18634 ft 403 kts
2026-05-04 14:41 28.58086 -16.37227 19202 ft 407 kts
2026-05-04 14:41 28.63770 -16.36566 20320 ft 414 kts
2026-05-04 14:42 28.69565 -16.35892 21428 ft 422 kts
2026-05-04 14:42 28.72455 -16.35556 21961 ft 425 kts
2026-05-04 14:42 28.75422 -16.35210 22493 ft 429 kts
2026-05-04 14:43 28.78408 -16.34862 23029 ft 433 kts
2026-05-04 14:43 28.81414 -16.34511 23571 ft 436 kts 360°
2026-05-04 14:43 28.84446 -16.34158 24039 ft 439 kts
2026-05-04 14:43 28.87501 -16.33802 24490 ft 442 kts 360°
2026-05-04 14:44 28.90534 -16.33447 24914 ft 445 kts 360°
2026-05-04 14:44 28.93621 -16.33086 25356 ft 448 kts 360°
2026-05-04 14:44 28.96735 -16.32722 25775 ft 451 kts 359°
2026-05-04 14:44 28.99869 -16.32355 26193 ft 453 kts 359°
2026-05-04 14:45 29.03019 -16.31986 26603 ft 456 kts 359°
2026-05-04 14:45 29.06196 -16.31614 27014 ft 459 kts 359°
2026-05-04 14:45 29.09386 -16.31240 27404 ft 462 kts 359°
2026-05-04 14:45 29.12588 -16.30864 27803 ft 464 kts 359°
2026-05-04 14:46 29.15773 -16.30490 28172 ft 467 kts 359°
2026-05-04 14:46 29.19015 -16.30109 28531 ft 469 kts 359°
2026-05-04 14:46 29.22279 -16.29725 28879 ft 472 kts 359°
2026-05-04 14:46 29.25558 -16.29340 29209 ft 475 kts 359°
2026-05-04 14:47 29.28864 -16.28951 29546 ft 477 kts 359°
2026-05-04 14:47 29.32130 -16.28566 29878 ft 479 kts 358°
2026-05-04 14:47 29.35457 -16.28174 30191 ft 482 kts 358°
2026-05-04 14:47 29.38800 -16.27780 30488 ft 484 kts 358°
2026-05-04 14:48 29.42164 -16.27383 30773 ft 486 kts 359°
2026-05-04 14:48 29.45544 -16.26984 31045 ft 489 kts 358°
2026-05-04 14:48 29.48933 -16.26583 31347 ft 490 kts 358°
2026-05-04 14:48 29.52322 -16.26180 31695 ft 490 kts 358°
2026-05-04 14:49 29.55720 -16.25777 32050 ft 490 kts 358°
2026-05-04 14:49 29.59111 -16.25374 32399 ft 490 kts 358°
2026-05-04 14:49 29.62501 -16.24972 32741 ft 490 kts 358°
2026-05-04 14:49 29.65894 -16.24570 32950 ft 490 kts 358°
2026-05-04 14:50 29.72655 -16.23767 33085 ft 488 kts 358°
2026-05-04 14:50 29.79375 -16.22969 33086 ft 488 kts 358°
2026-05-04 14:51 29.86133 -16.22165 33086 ft 488 kts 358°
2026-05-04 14:51 29.92896 -16.21360 33086 ft 488 kts 358°
2026-05-04 14:52 29.99642 -16.20556 33084 ft 486 kts 358°
2026-05-04 14:52 30.06358 -16.19754 33062 ft 484 kts 358°
2026-05-04 14:53 30.13010 -16.18961 33089 ft 486 kts 358°
2026-05-04 14:53 30.19796 -16.18149 33088 ft 486 kts 358°
2026-05-04 14:54 30.26495 -16.17344 33085 ft 486 kts 358°
2026-05-04 14:54 30.33221 -16.16536 33090 ft 486 kts 358°
2026-05-04 14:55 30.39960 -16.15725 33093 ft 486 kts 358°
2026-05-04 14:55 30.46653 -16.14919 33087 ft 486 kts 358°
2026-05-04 14:56 30.53383 -16.14108 33100 ft 486 kts 358°
2026-05-04 14:56 30.60127 -16.13294 33098 ft 486 kts 358°
2026-05-04 14:57 30.66865 -16.12478 33092 ft 486 kts 358°
2026-05-04 14:57 30.73585 -16.11663 33088 ft 485 kts 358°
2026-05-04 14:58 30.80281 -16.10853 33103 ft 485 kts 359°
2026-05-04 14:58 30.85846 -16.10179 33094 ft 482 kts 359°
2026-05-04 14:59 30.93615 -16.09235 33091 ft 483 kts 359°
2026-05-04 15:00 31.03641 -16.08013 33095 ft 482 kts 359°
2026-05-04 15:00 31.10314 -16.07200 33094 ft 480 kts
2026-05-04 15:01 31.20227 -16.05987 33097 ft 478 kts
2026-05-04 15:01 31.26882 -16.05173 33097 ft 481 kts
2026-05-04 15:02 31.33544 -16.04355 32788 ft 478 kts
2026-05-04 15:02 31.36810 -16.03955 32200 ft 477 kts
2026-05-04 15:02 31.40124 -16.03730 31358 ft 475 kts 354°
2026-05-04 15:03 31.43414 -16.04030 30384 ft 475 kts 347°
2026-05-04 15:03 31.46665 -16.04857 29191 ft 478 kts 339°
2026-05-04 15:03 31.49840 -16.05979 28416 ft 474 kts 339°
2026-05-04 15:03 31.52981 -16.07063 27953 ft 464 kts 340°
2026-05-04 15:04 31.56059 -16.08119 27411 ft 457 kts 340°
2026-05-04 15:04 31.59086 -16.09160 26885 ft 450 kts 340°
2026-05-04 15:04 31.62077 -16.10195 26323 ft 444 kts 340°
2026-05-04 15:04 31.65024 -16.11215 25807 ft 438 kts 339°
2026-05-04 15:05 31.67921 -16.12219 25406 ft 430 kts 339°
2026-05-04 15:05 31.70733 -16.13193 25044 ft 421 kts 339°
2026-05-04 15:05 31.73521 -16.14161 24671 ft 413 kts 339°
2026-05-04 15:05 31.76250 -16.15108 24305 ft 406 kts 339°
2026-05-04 15:06 31.78940 -16.16043 23940 ft 399 kts 339°
2026-05-04 15:06 31.80691 -16.16652 23701 ft 394 kts 339°
2026-05-04 15:06 31.83310 -16.17563 23276 ft 388 kts 339°
2026-05-04 15:07 31.88411 -16.19343 22441 ft 376 kts 339°
2026-05-04 15:07 31.90905 -16.20213 22027 ft 371 kts 339°
2026-05-04 15:07 31.93363 -16.21070 21617 ft 366 kts 339°
2026-05-04 15:07 31.95794 -16.21919 21215 ft 362 kts 339°
2026-05-04 15:08 31.98196 -16.22758 20819 ft 358 kts 339°
2026-05-04 15:08 32.00604 -16.23477 20428 ft 357 kts 347°
2026-05-04 15:08 32.03076 -16.23725 20049 ft 355 kts 352°
2026-05-04 15:08 32.05500 -16.23903 19680 ft 351 kts 352°
2026-05-04 15:09 32.07930 -16.24082 19314 ft 347 kts 352°
2026-05-04 15:09 32.10329 -16.24259 18966 ft 343 kts 353°
2026-05-04 15:09 32.12696 -16.24435 18619 ft 339 kts 353°
2026-05-04 15:10 32.17361 -16.24767 17867 ft 332 kts 353°
2026-05-04 15:10 32.19661 -16.24883 17473 ft 329 kts 356°
2026-05-04 15:10 32.24258 -16.24912 16443 ft 335 kts 356°
2026-05-04 15:11 32.26611 -16.24927 15750 ft 342 kts 356°
2026-05-04 15:11 32.29007 -16.24943 14841 ft 347 kts 356°
2026-05-04 15:11 32.31463 -16.24964 14172 ft 356 kts 356°
2026-05-04 15:11 32.33894 -16.24984 13848 ft 351 kts 356°
2026-05-04 15:12 32.36284 -16.24998 13699 ft 335 kts 356°
2026-05-04 15:12 32.38558 -16.25007 13529 ft 318 kts 356°
2026-05-04 15:12 32.40734 -16.25009 13234 ft 309 kts 356°
2026-05-04 15:12 32.42877 -16.25012 12852 ft 306 kts 356°
2026-05-04 15:13 32.45003 -16.25020 12437 ft 305 kts 356°
2026-05-04 15:13 32.47117 -16.25031 12044 ft 303 kts 356°
2026-05-04 15:13 32.49225 -16.25044 11694 ft 301 kts 356°
2026-05-04 15:13 32.51315 -16.25062 11357 ft 299 kts 356°
2026-05-04 15:14 32.53368 -16.25082 10975 ft 298 kts 356°
2026-05-04 15:14 32.55437 -16.25108 10589 ft 296 kts 356°
2026-05-04 15:14 32.57493 -16.25137 10233 ft 295 kts 356°
2026-05-04 15:14 32.59540 -16.25170 9857 ft 293 kts 356°
2026-05-04 15:15 32.61573 -16.25208 9457 ft 291 kts 356°
2026-05-04 15:15 32.63592 -16.25259 9079 ft 289 kts 356°
2026-05-04 15:15 32.65596 -16.25317 8662 ft 288 kts 356°
2026-05-04 15:16 32.69582 -16.25444 7908 ft 284 kts 356°
2026-05-04 15:16 32.71554 -16.25511 7586 ft 281 kts 356°
2026-05-04 15:16 32.75269 -16.25634 7378 ft 257 kts 356°
2026-05-04 15:17 32.77025 -16.25696 7216 ft 249 kts 356°
2026-05-04 15:17 32.80486 -16.25808 6585 ft 248 kts 356°
2026-05-04 15:17 32.82205 -16.25876 6278 ft 246 kts 356°
2026-05-04 15:18 32.83922 -16.25944 5982 ft 246 kts 356°
2026-05-04 15:18 32.85638 -16.26001 5672 ft 247 kts 356°
2026-05-04 15:18 32.87344 -16.26068 5389 ft 244 kts 356°
2026-05-04 15:19 32.90534 -16.27119 4710 ft 241 kts 314°
2026-05-04 15:19 32.91412 -16.28733 4368 ft 235 kts 283°
2026-05-04 15:19 32.91072 -16.32480 3735 ft 230 kts 253°
2026-05-04 15:20 32.90673 -16.34314 3474 ft 227 kts 253°
2026-05-04 15:20 32.90281 -16.36133 3175 ft 228 kts 254°
2026-05-04 15:20 32.89896 -16.37948 3037 ft 228 kts 254°
2026-05-04 15:20 32.89506 -16.39788 3011 ft 229 kts 254°
2026-05-04 15:21 32.89120 -16.41620 3011 ft 229 kts 254°
2026-05-04 15:21 32.88730 -16.43464 3010 ft 229 kts 254°
2026-05-04 15:21 32.87955 -16.47132 3008 ft 229 kts 254°
2026-05-04 15:22 32.87565 -16.48973 3009 ft 229 kts 254°
2026-05-04 15:22 32.87176 -16.50807 3011 ft 228 kts 254°
2026-05-04 15:22 32.86401 -16.54458 3005 ft 228 kts 255°
2026-05-04 15:23 32.86011 -16.56289 3007 ft 228 kts 254°
2026-05-04 15:23 32.85608 -16.58112 3002 ft 227 kts 249°
2026-05-04 15:23 32.84879 -16.59724 3006 ft 220 kts 230°
2026-05-04 15:23 32.83799 -16.61031 2992 ft 222 kts 223°
2026-05-04 15:24 32.81568 -16.63623 2552 ft 227 kts 224°
2026-05-04 15:24 32.79395 -16.66226 2330 ft 215 kts 223°
2026-05-04 15:25 32.78326 -16.67466 2073 ft 211 kts 223°
2026-05-04 15:25 32.77273 -16.68684 1999 ft 211 kts 223°
2026-05-04 15:25 32.76249 -16.69877 1997 ft 200 kts 223°
2026-05-04 15:26 32.74290 -16.72162 1956 ft 191 kts 224°
2026-05-04 15:26 32.73386 -16.73252 1457 ft 187 kts 226°
2026-05-04 15:26 32.71635 -16.75321 715 ft 158 kts 219°
2026-05-04 15:27 32.70862 -16.76204 350 ft 151 kts 223°
2026-05-04 15:27 32.69384 -16.77980 832 ft 169 kts 223°
2026-05-04 15:28 32.67319 -16.79762 2117 ft 194 kts 200°
2026-05-04 15:28 32.65950 -16.80133 2607 ft 212 kts 186°
2026-05-04 15:28 32.62889 -16.80499 3350 ft 225 kts 187°
2026-05-04 15:29 32.61331 -16.80708 3021 ft 228 kts 185°
2026-05-04 15:30 32.58866 -16.75501 2997 ft 232 kts 52°
2026-05-04 15:30 32.62219 -16.71308 2999 ft 232 kts 46°
2026-05-04 15:31 32.64479 -16.68524 2999 ft 236 kts 46°
2026-05-04 15:31 32.65612 -16.67126 3001 ft 235 kts 46°
2026-05-04 15:32 32.69175 -16.63135 2998 ft 235 kts 41°
2026-05-04 15:32 32.71618 -16.60594 3004 ft 234 kts 41°
2026-05-04 15:33 32.74072 -16.58041 3003 ft 236 kts 41°
2026-05-04 15:34 32.77935 -16.54524 3010 ft 235 kts 12°
2026-05-04 15:34 32.79539 -16.54562 3007 ft 232 kts 339°
2026-05-04 15:34 32.81895 -16.56990 2981 ft 226 kts 304°
2026-05-04 15:35 32.83378 -16.60189 2328 ft 211 kts 298°
2026-05-04 15:35 32.84023 -16.61781 1975 ft 217 kts 284°
2026-05-04 15:35 32.84137 -16.63412 2135 ft 185 kts 258°
2026-05-04 15:36 32.82668 -16.65759 1739 ft 172 kts 208°
2026-05-04 15:36 32.81666 -16.66389 1738 ft 163 kts 206°
2026-05-04 15:36 32.80654 -16.67038 1868 ft 167 kts 211°
2026-05-04 15:37 32.79734 -16.67841 1910 ft 165 kts 217°
2026-05-04 15:37 32.78849 -16.68707 1923 ft 158 kts 218°
2026-05-04 15:37 32.78063 -16.69470 1795 ft 136 kts 217°
2026-05-04 15:37 32.77311 -16.70105 1574 ft 132 kts 212°
2026-05-04 15:38 32.76512 -16.70658 1368 ft 131 kts 208°
2026-05-04 15:38 32.75728 -16.71183 1174 ft 129 kts 213°
2026-05-04 15:38 32.75002 -16.71850 1160 ft 133 kts 216°
2026-05-04 15:38 32.74267 -16.72526 1214 ft 134 kts 216°
2026-05-04 15:39 32.73530 -16.73191 1077 ft 133 kts 217°
2026-05-04 15:39 32.72837 -16.73920 814 ft 133 kts 221°
2026-05-04 15:39 32.71537 -16.75449 500 ft 132 kts 218°
2026-05-04 15:40 32.70878 -16.76198 310 ft 132 kts 223°
2026-05-04 15:40 32.70228 -16.76946 187 ft 127 kts 222°
2026-05-04 15:40 32.69694 -16.77560 176 ft 65 kts 223°
2026-05-04 15:40 32.69580 -16.77692 176 ft 0 kts 224°
2026-05-04 15:41 32.69533 -16.77746 176 ft 24 kts 224°
2026-05-04 15:41 32.69403 -16.77895 176 ft 27 kts 223°
2026-05-04 15:41 32.69306 -16.77962 176 ft 13 kts 157°
2026-05-04 15:41 32.69290 -16.77881 176 ft 9 kts 83°
2026-05-04 15:42 32.69325 -16.77813 176 ft 11 kts 44°
2026-05-04 15:42 32.69363 -16.77768 176 ft 2 kts 45°
2026-05-04 15:42 32.69374 -16.77747 176 ft 3 kts 77°
2026-05-04 15:42 32.69359 -16.77724 176 ft 5 kts 138°
2026-05-04 15:43 32.69350 -16.77714 176 ft 3 kts 139°
2026-05-04 15:43 32.69339 -16.77704 176 ft 1 kts 139°
2026-05-04 15:43 32.69336 -16.77700 176 ft 0 kts 139°